Simultaneous Nadir Overpasses (SNOs) Predictions

Prediction of SNOs between GOES-16 and NPP Satellite Orbit:

Table of predicted SNOs for the next 14.0 days since TLE Epoch: 5/7/2022
Index Date Time (GOES-16) GOES-16 Lat,Lon NPP Lat,Lon Distance(km) Time Diff (sec)
1 05/07/2022 06:32:16 -0.03, -75.19 0.23, -76.39 136.41 80
2 05/08/2022 06:10:51 -0.03, -75.20 -0.78, -71.86 380.74 80
3 05/09/2022 18:35:26 0.02, -75.21 -0.40, -77.16 221.73 80
4 05/10/2022 18:14:01 0.02, -75.22 0.61, -72.62 295.97 80
5 05/12/2022 06:38:27 -0.02, -75.23 0.57, -77.88 302.24 80
6 05/13/2022 06:17:02 -0.02, -75.24 -0.44, -73.35 215.64 80
7 05/14/2022 18:41:37 0.01, -75.26 -0.73, -78.65 386.14 80
8 05/15/2022 18:20:11 0.02, -75.27 0.29, -74.12 131.95 80
9 05/17/2022 06:44:38 -0.01, -75.29 0.89, -79.38 465.81 80
10 05/18/2022 06:23:12 -0.02, -75.30 -0.13, -74.85 52.20 80
11 05/20/2022 18:29:01 0.01, -75.33 -0.06, -75.60 31.11 80
